Weather History for Columbia, SC

Change the Weather History Date:

Monday, February 18, 2013

  Actual Average Record
Temperature  
Mean Temperature 42 °F 49 °F  
Max Temperature 60 °F 61 °F 81 °F (1976)
Min Temperature 23 °F 37 °F 12 °F (1958)
Degree Days  
Heating Degree Days 23 16  
Month to date heating degree days 303 316  
Since 1 July heating degree days 1548 1952  
Cooling Degree Days 0 0  
Month to date cooling degree days 0 0  
Year to date cooling degree days 25 1  
Moisture  
Dew Point 21 °F    
Average Humidity 52    
Maximum Humidity 81    
Minimum Humidity 23    
Precipitation  
Precipitation 0.00 in 0.14 in 2.12 in (1979)
Month to date precipitation 3.04 2.28  
Year to date precipitation 4.25 5.86  
Sea Level Pressure  
Sea Level Pressure 30.33 in    
Wind  
Wind Speed 4 mph (South)    
Max Wind Speed 16 mph    
Max Gust Speed 22 mph    
Visibility 10 miles    
Events      
T = Trace of Precipitation, MM = Missing Value Source: NWS Daily Summary

Daily Weather History Graph

Daily Weather History Graph

Search for Another Location

Airport:

Trip Planner

Search our weather history database for the weather conditions in past years. The results will help you decide how hot, cold, wet, or windy it might be!

Date:

Astronomy

Feb. 18, 2013 Rise Set
Actual Time 7:05 AM EST 6:11 PM EST
Civil Twilight 6:40 AM EST 6:36 PM EST
Nautical Twilight 6:11 AM EST 7:06 PM EST
Astronomical Twilight 5:42 AM EST 7:35 PM EST
Moon 12:04 PM EST (2/18) 1:36 AM EST (2/18)
Length of Visible Light 11h 56m
Length of Day
11h 05m
First Quarter, 58% of the Moon is Illuminated
Feb 18
First Quarter
Feb 25
Full
Mar 4
Last Quarter
Mar 11
New
Mar 19
First Quarter

Hourly Weather History & Observations

Time (EST) Temp. Windchill Dew Point Humidity Pressure Visibility Wind Dir Wind Speed Gust Speed Precip Events Conditions
12:56 AM 30.0 °F 25.2 °F 17.1 °F 59% 30.31 in 10.0 mi WSW 4.6 mph - N/A   Clear
1:56 AM 28.0 °F - 18.0 °F 66% 30.33 in 10.0 mi Calm Calm - N/A   Clear
2:56 AM 28.0 °F - 18.0 °F 66% 30.33 in 10.0 mi Calm Calm - N/A   Clear
3:56 AM 25.0 °F 20.7 °F 18.0 °F 75% 30.34 in 10.0 mi West 3.5 mph - N/A   Clear
4:56 AM 28.0 °F - 19.0 °F 69% 30.35 in 10.0 mi Calm Calm - N/A   Clear
5:56 AM 24.1 °F 18.2 °F 19.0 °F 81% 30.37 in 10.0 mi West 4.6 mph - N/A   Clear
6:56 AM 25.0 °F - 19.0 °F 78% 30.38 in 10.0 mi Calm Calm - N/A   Clear
7:56 AM 27.0 °F - 21.0 °F 78% 30.40 in 10.0 mi Calm Calm - N/A   Clear
8:56 AM 34.0 °F - 21.0 °F 59% 30.42 in 10.0 mi Calm Calm - N/A   Clear
9:56 AM 42.1 °F - 21.0 °F 43% 30.41 in 10.0 mi Calm Calm - N/A   Partly Cloudy
10:56 AM 48.9 °F - 18.0 °F 29% 30.41 in 10.0 mi Calm Calm - N/A   Partly Cloudy
11:56 AM 53.1 °F - 19.0 °F 26% 30.39 in 10.0 mi Calm Calm - N/A   Mostly Cloudy
12:56 PM 55.0 °F - 19.9 °F 25% 30.36 in 10.0 mi ESE 4.6 mph - N/A   Mostly Cloudy
1:56 PM 57.9 °F - 19.9 °F 23% 30.33 in 10.0 mi WSW 9.2 mph - N/A   Mostly Cloudy
2:56 PM 57.9 °F - 21.0 °F 24% 30.31 in 10.0 mi SSW 5.8 mph - N/A   Mostly Cloudy
3:56 PM 57.9 °F - 21.9 °F 25% 30.30 in 10.0 mi SSE 10.4 mph 19.6 mph N/A   Mostly Cloudy
4:56 PM 57.0 °F - 21.9 °F 26% 30.29 in 10.0 mi South 9.2 mph - N/A   Mostly Cloudy
5:56 PM 55.0 °F - 23.0 °F 29% 30.30 in 10.0 mi South 8.1 mph - N/A   Scattered Clouds
6:56 PM 50.0 °F - 25.0 °F 38% 30.30 in 10.0 mi SSE 6.9 mph - N/A   Scattered Clouds
7:56 PM 48.0 °F - 23.0 °F 37% 30.30 in 10.0 mi South 9.2 mph - N/A   Scattered Clouds
8:56 PM 46.9 °F - 24.1 °F 41% 30.27 in 10.0 mi SSE 9.2 mph - N/A   Scattered Clouds
9:56 PM 44.1 °F 41.5 °F 24.1 °F 45% 30.28 in 10.0 mi South 4.6 mph - N/A   Scattered Clouds
10:56 PM 43.0 °F - 24.1 °F 47% 30.28 in 10.0 mi Calm Calm - N/A   Scattered Clouds
11:56 PM 42.1 °F - 25.0 °F 51% 30.25 in 10.0 mi Calm Calm - N/A   Scattered Clouds